(131316) = 2000 AU21 = 2001 FE179

Discovered at Anderson Mesa on 2001-03-20 by LONEOS.

Orbit

Orbit type: Main Belt

Note: WebGL enabled browser required.

epoch2023-09-13.0
epoch JD2460200.5
perihelion date2018-08-09.57729
perihelion JD2458340.07729
argument of perihelion (°)237.53731
ascending node (°)82.72753
inclination (°)11.10235
eccentricity0.0312700
perihelion distance (AU)2.8814312
Tisserand w.r.t. Jupiter3.2
ΔV w.r.t. Earth (km/sec)11.1
semimajor axis (AU)2.9744421
mean anomaly (°)357.44334
mean daily motion (°/day)0.19213020
aphelion distance (AU)3.067
period (years)5.13
P-vector [x]0.75334371
P-vector [y]-0.52002908
P-vector [z]-0.40254565
Q-vector [x]0.62927515
Q-vector [y]0.74783068
Q-vector [z]0.21157047
absolute magnitude14.84
phase slope0.15
uncertainty0
referenceMPEC 2024-A48
observations used998
oppositions20
arc length (days)9093
first opposition used1998
last opposition used2023
residual rms (arc-secs)0.74
perturbers coarse indicatorM-v
perturbers precise indicator003Ek
first observation date used1998-10-18.0
last observation date used2023-09-10.0
computer nameMPCLINUX
JD of orbit computation2456966.709480
perihelion JD uncertainty (days)5.1866E-04
argument of perihelion uncertainty (°)1.0477E-04
ascending node uncertainty (°)2.7990E-05
inclination uncertainty (°)6.2767E-06
eccentricity uncertainty 4.8008E-08
perihelion distance uncertainty (AU)1.4740E-07
Minimum Orbit Intersection Distances (in AU)
for orbit epoch: 2460200.5, reference: E2024-A48
Mercury2.4417
Venus2.15871
Earth1.88125
Mars1.43669
Jupiter2.04658
Saturn6.02295
Uranus15.4439
Neptune26.9025

Observations

1021 total observations over interval: 1998 10 18.26421 – 2023 09 10.330031
These data are available for download (format description).

Date (UT) J2000 RA J2000 Dec Magn Location Ref
1998 10 18.26421 01 02 14.16 -10 04 17.9 18.5 R 699 – Lowell Observatory-LONEOS MPS 82655
1998 10 18.28838 01 02 12.95 -10 04 20.0   699 – Lowell Observatory-LONEOS MPS 82655
1998 10 18.31322 01 02 11.87 -10 04 22.2   699 – Lowell Observatory-LONEOS MPS 82655
2000 01 03.24821 06 32 47.07 +27 44 18.5 19.4   704 – Lincoln Laboratory ETS, New Mexico MPS 9233
2000 01 03.26301 06 32 46.21 +27 44 22.7 19.6   704 – Lincoln Laboratory ETS, New Mexico MPS 9233
2000 01 03.27782 06 32 45.35 +27 44 25.2 19.1   704 – Lincoln Laboratory ETS, New Mexico MPS 9233
2000 01 04.22972 06 31 50.04 +27 47 44.7 18.9   704 – Lincoln Laboratory ETS, New Mexico MPS 9233
2000 01 04.24435 06 31 49.17 +27 47 48.2 18.7   704 – Lincoln Laboratory ETS, New Mexico MPS 9233
2000 01 04.25899 06 31 48.24 +27 47 50.8 18.7   704 – Lincoln Laboratory ETS, New Mexico MPS 9233
2000 01 04.27361 06 31 47.47 +27 47 54.0 19.0   704 – Lincoln Laboratory ETS, New Mexico MPS 9233
2000 01 04.28828 06 31 46.52 +27 47 56.7 18.7   704 – Lincoln Laboratory ETS, New Mexico MPS 9233
2001 03 04.35989 12 30 41.22 +14 13 17.3 18.6   704 – Lincoln Laboratory ETS, New Mexico MPS 30867
2001 03 04.37415 12 30 40.67 +14 13 21.4 18.2   704 – Lincoln Laboratory ETS, New Mexico MPS 30867
2001 03 04.38818 12 30 40.19 +14 13 25.9 18.0   704 – Lincoln Laboratory ETS, New Mexico MPS 30867
2001 03 20.23376 12 19 04.03 +15 43 35.5 18.7 R 699 – Lowell Observatory-LONEOS MPS 30867
2001 03 20.26343 12 19 02.55 +15 43 43.6   699 – Lowell Observatory-LONEOS MPS 30867
2001 03 20.29315 12 19 01.11 +15 43 52.6   699 – Lowell Observatory-LONEOS MPS 30867
2001 03 20.32289 12 18 59.58 +15 43 59.5   699 – Lowell Observatory-LONEOS MPS 30867
2001 03 24.35382 12 15 45.92 +16 02 23.9 19.8   608 – Haleakala-AMOS MPS 30867
2001 03 24.36407 12 15 45.43 +16 02 26.6 20.5   608 – Haleakala-AMOS MPS 30867
2001 03 24.37528 12 15 44.88 +16 02 29.2 20.3   608 – Haleakala-AMOS MPS 30867
2003 09 19.32422 00 33 04.53 -14 42 43.9 18.8 R 699 – Lowell Observatory-LONEOS MPS 124042
2003 09 19.33753 00 33 03.93 -14 42 48.7   699 – Lowell Observatory-LONEOS MPS 124042
2003 09 19.35077 00 33 03.21 -14 42 52.5   699 – Lowell Observatory-LONEOS MPS 124042
2003 09 19.36406 00 33 02.66 -14 42 56.2   699 – Lowell Observatory-LONEOS MPS 124042
2003 09 23.52669 00 29 47.32 -15 03 07.9 20.3   608 – Haleakala-AMOS MPS 85170
2003 09 23.53751 00 29 46.79 -15 03 10.8 20.7   608 – Haleakala-AMOS MPS 85170
2003 09 23.54802 00 29 46.27 -15 03 14.0 20.3   608 – Haleakala-AMOS MPS 85170
2003 09 24.44998 00 29 03.33 -15 07 18.1 20.1   608 – Haleakala-AMOS MPS 85170
2003 09 24.46066 00 29 02.78 -15 07 20.7 19.7   608 – Haleakala-AMOS MPS 85170
2003 09 24.47145 00 29 02.23 -15 07 24.2 19.9   608 – Haleakala-AMOS MPS 85170
2004 12 03.26373 06 04 02.31 +23 55 08.2 19.2 V 691 – Steward Observatory, Kitt Peak-Spacewatch MPS 120411
2004 12 03.29266 06 04 00.82 +23 55 13.9 19.6 V 691 – Steward Observatory, Kitt Peak-Spacewatch MPS 120411
2004 12 03.32224 06 03 59.26 +23 55 19.9 19.8 V 691 – Steward Observatory, Kitt Peak-Spacewatch MPS 120411
2004 12 08.30971 05 59 37.44 +24 11 16.5 18.5   704 – Lincoln Laboratory ETS, New Mexico MPS 121139
2004 12 08.32926 05 59 36.28 +24 11 20.3 18.8   704 – Lincoln Laboratory ETS, New Mexico MPS 121139
2004 12 08.34892 05 59 35.15 +24 11 24.6 19.5   704 – Lincoln Laboratory ETS, New Mexico MPS 121139
2004 12 08.36496 05 59 34.25 +24 11 26.4 19.6   704 – Lincoln Laboratory ETS, New Mexico MPS 121139
2004 12 10.34402 05 57 45.06 +24 17 39.2 19.7   704 – Lincoln Laboratory ETS, New Mexico MPS 121677
2004 12 10.35612 05 57 44.41 +24 17 40.5 19.6   704 – Lincoln Laboratory ETS, New Mexico MPS 121677
2004 12 10.36824 05 57 43.67 +24 17 44.5 19.2   704 – Lincoln Laboratory ETS, New Mexico MPS 121677
2004 12 10.38035 05 57 43.03 +24 17 46.5 19.2   704 – Lincoln Laboratory ETS, New Mexico MPS 121677
2004 12 20.21468 05 48 16.19 +24 47 07.0 20.0 V 691 – Steward Observatory, Kitt Peak-Spacewatch MPS 122662
2004 12 20.24005 05 48 14.70 +24 47 11.0 18.9 V 691 – Steward Observatory, Kitt Peak-Spacewatch MPS 122662
2004 12 20.26539 05 48 13.17 +24 47 15.5 18.8 V 691 – Steward Observatory, Kitt Peak-Spacewatch MPS 122662
2006 02 05.12082 11 58 10.66 +16 33 03.5 20.3 R 201 – Jonathan B. Postel Observatory MPS 162705
2006 02 05.16056 11 58 09.85 +16 33 18.9 19.7 R 201 – Jonathan B. Postel Observatory MPS 162705
2006 02 21.42799 11 50 20.04 +18 23 06.3 18.7 V 703 – Catalina Sky Survey MPS 163631
2006 02 21.43627 11 50 19.68 +18 23 09.0 18.8 V 703 – Catalina Sky Survey MPS 163631
2006 02 21.44456 11 50 19.32 +18 23 12.2 18.9 V 703 – Catalina Sky Survey MPS 163631
2006 02 21.46637 11 50 18.49 +18 23 21.3 19.6 V 703 – Catalina Sky Survey MPS 163631
2006 02 26.27790 11 47 04.59 +18 55 34.6 18.8 R 699 – Lowell Observatory-LONEOS MPS 164970
2006 02 26.29980 11 47 03.67 +18 55 44.5   699 – Lowell Observatory-LONEOS MPS 164971
2006 02 26.32172 11 47 02.70 +18 55 52.3   699 – Lowell Observatory-LONEOS MPS 164971
2006 02 26.34365 11 47 01.65 +18 56 00.8   699 – Lowell Observatory-LONEOS MPS 164971
2006 03 25.21526 11 25 59.12 +21 07 40.6 19.0 V 703 – Catalina Sky Survey MPS 166941
2006 03 25.22185 11 25 58.76 +21 07 41.3 19.2 V 703 – Catalina Sky Survey MPS 166941
2006 03 25.22840 11 25 58.47 +21 07 43.0 19.7 V 703 – Catalina Sky Survey MPS 166941
2006 03 25.23499 11 25 58.15 +21 07 42.9 19.0 V 703 – Catalina Sky Survey MPS 166941
2007 06 09.49481 16 43 35.83 -19 37 23.6 18.3 V E12 – Siding Spring Survey MPS 211006
2007 06 09.50004 16 43 35.50 -19 37 24.2 18.3 V E12 – Siding Spring Survey MPS 211006
2007 06 15.27026 16 38 27.75 -19 48 48.7 19.3   704 – Lincoln Laboratory ETS, New Mexico MPS 211006
2007 06 15.28016 16 38 27.24 -19 48 50.5 19.6   704 – Lincoln Laboratory ETS, New Mexico MPS 211006
2007 06 15.28997 16 38 26.71 -19 48 50.8 19.6   704 – Lincoln Laboratory ETS, New Mexico MPS 211006
2007 06 15.29979 16 38 26.21 -19 48 53.0 20.2   704 – Lincoln Laboratory ETS, New Mexico MPS 211006
2007 06 21.23754 16 33 29.49 -20 00 59.7 19.7   704 – Lincoln Laboratory ETS, New Mexico MPS 211346
2007 06 21.24737 16 33 29.05 -20 01 00.0 19.2   704 – Lincoln Laboratory ETS, New Mexico MPS 211346
2007 06 21.25708 16 33 28.61 -20 01 01.9 19.2   704 – Lincoln Laboratory ETS, New Mexico MPS 211346
2007 06 21.26675 16 33 28.07 -20 01 03.3 19.8   704 – Lincoln Laboratory ETS, New Mexico MPS 211346
2008 06 28.68463 23 53 15.72 -14 04 32.5 19.1 V E12 – Siding Spring Survey MPS 252386
2008 06 28.69373 23 53 16.04 -14 04 33.4 19.4 V E12 – Siding Spring Survey MPS 252386
2008 06 28.70233 23 53 16.33 -14 04 33.1 19.7 V E12 – Siding Spring Survey MPS 252386
2008 06 28.71106 23 53 16.62 -14 04 34.0 20.1 V E12 – Siding Spring Survey MPS 252386
2008 08 23.58252 23 54 51.30 -18 30 15.8 18.8 V E12 – Siding Spring Survey MPS 255084
2008 08 23.59105 23 54 50.97 -18 30 19.4 19.0 V E12 – Siding Spring Survey MPS 255084
2008 08 23.59961 23 54 50.65 -18 30 22.9 19.2 V E12 – Siding Spring Survey MPS 255084
2008 08 23.60816 23 54 50.40 -18 30 26.3 18.8 V E12 – Siding Spring Survey MPS 255084
2008 10 02.23677 23 25 31.44 -21 30 02.4 18.9 V 703 – Catalina Sky Survey MPS 260122
2008 10 02.24457 23 25 31.04 -21 30 03.2 19.1 V 703 – Catalina Sky Survey MPS 260122
2008 10 02.25237 23 25 30.75 -21 30 01.9 19.4 V 703 – Catalina Sky Survey MPS 260122
2008 10 02.26030 23 25 30.43 -21 30 03.0 19.8 V 703 – Catalina Sky Survey MPS 260122
2008 10 02.27510 23 25 29.78 -21 30 04.0 19.7 V 703 – Catalina Sky Survey MPS 260122
2008 10 02.28314 23 25 29.42 -21 30 04.7 19.5 V 703 – Catalina Sky Survey MPS 260122
2008 10 02.29127 23 25 29.10 -21 30 04.8 19.7 V 703 – Catalina Sky Survey MPS 260122
2008 10 02.29931 23 25 28.77 -21 30 05.5 18.8 V 703 – Catalina Sky Survey MPS 260122
2009 11 16.34645 05 21 25.98 +20 10 59.7 20.1 V 691 – Steward Observatory, Kitt Peak-Spacewatch MPS 304478
2009 11 16.36369 05 21 25.12 +20 11 01.3 21.0 V 691 – Steward Observatory, Kitt Peak-Spacewatch MPS 304478
2009 11 16.38099 05 21 24.42 +20 11 03.5 19.7 V 691 – Steward Observatory, Kitt Peak-Spacewatch MPS 304478
2009 11 24.34851 05 15 05.32 +20 25 52.2 19.7 V 691 – Steward Observatory, Kitt Peak-Spacewatch MPS 306341
